User: anonymous   Login
Location: Unspecified
(0.0000°N, 0.0000°E)
Time: 14:45:45
(UTC+00:00)
Language:

CADRE - Orbit

View from above orbital plane
View from above orbital plane
View from above satellite
View from above satellite

Ground track
Ground track

The orbit data is extracted from the following two-line orbital elements,

1 41475U 98067HV  17003.74787607  .12518598  12537-4  55989-3 0  9998
2 41475  51.6110 110.0165 0004040 312.3134  47.7551 16.43344525 36494
Epoch (UTC): 03 January 2017 17:56:56
Eccentricity: 0.0004040
inclination: 51.6110°
perigee height: 154 km
apogee height: 159 km
right ascension of ascending node: 110.0165°
argument of perigee: 312.3134°
revolutions per day: 16.43344525
mean anomaly at epoch: 47.7551°
orbit number at epoch: 3649

The dashed part of the orbit path shows where the satellite is in the earth's shadow,  

DLR